Wind_Speed
9 8 5 3 5 9 7 2 3 3 2 1 2 1 1 1 3 4 4 4 3 1 1 3 3 3 4 6 9 7 4 1 1 2 1 6 19 23 19 20 20 20 20 18 17 16 15 15 14 14 14 13 14 14 15 14 13 13 12 12 13 13 14 14 14 15 15 16 17 18 18 17 17 17 17 17 16 17 15 14 15 16 18 18 17 17 18 19 20 19 20 23 26 27 28 28 28
8 7 4 3 4 4 2 2 3 2 4 3 2 2 2 2 5 5 4 4 3 3 2 5 6 6 8 9 8 7 6 5 2 3 3 14 22 20 22 22 20 20 20 18 18 17 15 15 14 14 15 15 15 15 14 12 12 11 11 12 12 13 14 14 14 14 15 16 17 18 18 17 17 17 17 16 17 16 13 13 16 18 19 19 18 18 19 20 19 19 21 24 26 28 28 29 29
7 6 4 3 3 1 1 3 2 1 4 3 2 2 2 5 4 5 6 6 5 5 4 5 5 4 6 6 4 5 2 3 5 5 7 18 18 18 25 21 20 19 19 19 17 18 17 16 15 15 15 15 14 14 13 11 10 11 11 11 12 13 14 13 13 14 15 16 17 18 18 17 17 17 17 16 17 16 12 13 16 18 19 19 19 19 18 19 19 20 22 24 27 28 28 28 28
5 5 5 4 2 2 3 3 2 4 4 2 0 2 3 6 7 5 5 5 4 4 3 3 4 2 5 8 4 5 4 2 5 6 7 15 17 23 25 20 19 19 19 18 17 18 17 16 15 15 14 14 13 13 12 11 10 10 11 11 11 13 13 12 13 15 15 16 17 17 18 17 17 17 17 16 17 16 15 15 17 17 18 18 18 19 18 18 19 20 22 24 26 28 27 26 25
4 4 5 2 3 1 2 1 1 5 2 3 3 1 4 7 7 6 4 3 3 5 3 3 2 2 4 5 3 4 4 5 6 7 10 17 23 26 23 19 20 20 20 17 17 17 16 15 14 14 14 13 13 12 12 11 11 10 12 12 11 12 12 12 12 14 15 16 16 17 17 17 17 17 17 17 17 16 16 16 17 17 16 17 18 19 17 16 18 20 22 22 23 25 25 25 24
6 6 3 1 1 1 2 2 3 4 1 4 5 3 6 6 7 7 5 4 4 5 4 4 3 2 4 2 3 3 2 6 8 8 15 23 26 25 22 20 20 20 19 17 17 16 15 15 14 14 13 13 13 12 12 12 11 11 13 12 11 12 12 12 12 13 15 15 16 17 17 17 16 16 16 17 16 15 15 15 17 16 16 17 18 17 15 16 18 20 22 21 22 24 24 25 24
6 6 1 1 2 1 3 3 3 2 2 3 7 6 6 6 7 8 6 4 5 4 4 2 4 6 3 1 3 4 1 9 10 13 22 27 27 24 21 20 20 20 17 17 16 16 16 15 15 14 13 13 12 12 12 12 11 12 13 12 11 11 11 11 11 12 14 15 15 16 17 17 16 16 16 16 16 16 16 17 17 16 16 16 16 16 15 17 18 20 21 20 22 25 24 24 24
3 2 1 3 2 2 3 3 2 2 2 3 6 7 9 8 7 6 5 3 1 0 2 1 4 6 2 3 3 3 7 14 16 21 26 27 27 24 21 21 22 20 17 16 16 16 16 15 15 14 14 13 12 12 12 12 12 13 13 12 11 11 11 10 10 11 12 13 14 15 17 17 16 16 16 16 15 15 16 17 16 15 15 16 16 16 16 17 18 20 20 20 23 24 23 23 24
2 2 1 4 1 3 2 1 1 2 1 2 5 7 9 9 7 6 5 4 4 2 1 3 4 5 1 5 3 1 9 17 23 26 25 25 27 24 21 22 23 21 18 16 17 17 16 16 16 14 14 13 12 13 12 13 13 14 13 12 11 11 11 10 9 10 11 12 13 14 15 17 17 16 16 15 15 15 16 15 15 15 16 16 16 17 17 18 18 20 19 20 23 24 23 22 22
0 1 2 3 2 3 1 0 1 2 2 3 5 6 8 7 6 7 7 6 5 4 1 3 5 5 4 5 2 2 8 17 25 26 22 24 25 23 20 21 21 20 18 16 17 17 17 17 16 15 14 13 13 12 12 13 14 14 13 12 11 11 11 9 9 9 10 11 12 13 14 16 18 17 16 15 15 15 16 15 15 16 16 16 16 17 17 17 18 19 19 22 24 23 22 21 20
2 2 2 3 3 2 2 2 2 3 2 3 2 3 6 6 6 6 7 6 5 6 2 1 4 4 6 4 1 4 16 19 23 25 23 24 24 20 18 20 19 17 17 16 18 18 18 18 16 16 15 14 13 12 12 12 14 14 13 12 11 11 10 9 9 9 9 10 12 13 13 15 17 18 16 14 14 14 15 14 15 16 16 17 17 17 17 17 18 18 19 23 23 22 21 19 18
2 3 4 3 0 2 4 4 4 4 3 4 1 2 3 5 5 5 7 6 5 6 3 1 2 4 5 2 2 7 18 18 21 26 25 25 23 18 17 20 18 17 17 16 19 20 19 18 17 17 16 15 13 12 12 12 14 14 13 11 11 11 10 9 9 9 10 10 11 12 13 14 16 17 16 15 15 15 14 14 15 16 17 16 15 16 16 18 18 18 21 22 21 20 19 18 19
2 1 5 1 3 4 4 5 4 3 1 3 4 3 3 5 4 6 7 6 6 6 2 5 2 5 5 1 1 7 12 16 21 25 26 25 22 17 17 20 19 18 17 16 19 20 20 19 18 17 17 16 14 13 12 12 14 14 13 11 11 11 10 9 9 9 9 9 10 11 12 13 14 16 15 15 15 16 15 15 15 16 16 15 15 16 16 18 18 19 21 20 18 18 17 17 18
1 2 5 1 2 2 4 4 3 4 1 4 3 3 3 3 3 4 7 7 3 5 3 3 4 6 3 1 2 4 9 17 20 24 27 24 21 17 17 19 19 18 16 16 19 20 20 19 18 18 18 17 15 14 13 13 14 15 14 12 12 11 11 10 9 9 9 9 9 10 11 12 13 14 14 14 14 16 16 16 16 16 16 15 16 16 16 17 18 19 19 18 18 19 18 18 18
2 1 5 1 3 2 1 2 4 5 1 3 3 3 4 1 2 6 6 7 1 3 1 1 4 3 3 4 4 6 14 22 21 23 25 21 20 17 17 19 17 18 16 16 18 20 21 19 19 19 18 18 17 16 14 14 14 15 14 13 12 12 12 11 9 9 9 9 9 9 10 11 12 12 13 13 14 15 15 15 15 15 15 15 15 16 17 16 17 18 18 18 20 20 20 19 19
2 2 5 2 2 1 2 2 5 4 2 4 4 4 6 3 2 5 1 6 2 1 2 1 1 3 5 5 6 14 22 26 22 23 21 19 20 15 17 19 18 19 17 16 16 18 20 20 20 19 19 18 17 17 15 15 15 15 15 14 14 13 13 11 10 9 9 9 8 9 10 11 11 11 12 12 13 13 13 14 14 14 14 14 14 15 16 15 16 18 17 18 21 21 20 20 19
3 4 4 1 1 1 2 2 3 3 3 4 3 4 6 1 3 2 1 5 5 2 4 2 3 5 5 3 12 24 28 27 25 23 20 20 20 16 18 20 19 20 19 18 17 16 19 20 20 19 19 19 18 17 16 16 16 16 16 16 15 14 13 12 11 10 10 9 9 9 10 10 11 11 11 11 12 12 12 12 13 13 13 13 13 14 15 15 16 17 16 18 21 20 19 19 19
4 3 3 2 2 0 3 4 5 4 4 5 5 5 7 4 1 1 2 5 3 4 5 4 7 7 7 12 22 28 28 27 25 23 21 21 20 18 20 21 21 22 22 20 18 17 19 20 20 19 20 19 18 18 17 17 17 17 17 17 17 16 15 13 13 12 11 10 10 9 10 10 11 11 11 11 11 11 11 11 12 12 13 13 13 14 15 16 17 16 15 17 19 19 18 18 17
3 3 3 3 3 1 4 2 3 3 6 6 6 6 6 5 5 2 1 1 2 5 3 5 7 6 8 14 22 26 27 27 24 23 23 23 21 20 21 22 22 23 22 22 22 20 20 21 20 19 20 20 19 18 18 18 18 18 18 18 18 17 16 14 14 13 12 12 11 10 11 11 11 11 11 11 11 12 12 12 12 12 13 13 14 15 16 17 16 15 15 16 17 17 17 17 16
2 3 3 4 5 1 5 3 2 2 8 8 5 5 3 3 5 3 3 4 3 5 4 4 4 5 6 9 17 22 23 24 23 21 22 23 23 22 23 24 24 25 24 23 23 21 21 22 21 20 20 21 21 20 19 19 19 19 19 19 19 18 17 16 15 14 13 13 13 12 12 12 11 11 12 12 12 13 14 14 14 14 14 15 15 16 17 17 17 16 16 15 16 16 16 16 15
1 3 4 5 3 2 5 3 3 2 6 9 5 5 4 3 4 3 5 5 2 6 6 7 9 11 11 8 13 19 20 21 21 20 21 22 23 22 24 26 26 27 26 23 23 23 23 22 22 21 21 22 22 21 21 20 20 21 20 20 19 19 19 18 17 16 15 15 15 13 13 13 12 12 13 13 13 14 15 15 15 16 16 16 16 16 17 18 17 17 17 16 15 15 16 17 16
2 1 4 3 3 3 3 3 5 4 5 6 6 6 3 3 2 4 7 5 5 6 6 10 10 13 15 13 14 16 16 18 19 20 21 22 23 22 23 24 23 24 25 26 26 25 24 23 23 23 22 23 23 23 23 22 22 22 22 22 21 21 20 20 19 18 18 18 18 16 15 14 13 13 13 14 15 16 17 17 17 17 17 18 18 17 18 18 17 17 17 16 15 14 16 17 17
3 1 1 2 3 4 2 2 4 4 7 5 4 2 2 5 1 3 7 6 7 6 6 8 9 15 20 18 16 13 13 16 19 23 24 25 26 25 24 25 25 25 26 28 28 27 26 25 24 24 23 24 24 24 23 23 23 24 24 23 23 22 22 21 20 20 20 20 20 18 18 18 16 14 15 15 16 17 18 18 18 18 18 19 19 18 18 18 17 16 16 16 16 16 16 18 18
5 1 1 3 4 5 2 1 3 6 7 2 1 2 2 5 3 0 3 7 6 6 5 6 10 17 20 16 14 14 15 19 22 26 27 28 30 29 28 27 27 26 26 27 28 29 29 27 25 25 24 24 25 25 24 24 24 25 25 24 24 24 24 23 22 21 20 21 21 20 19 19 18 16 16 16 17 18 19 19 19 19 19 19 19 19 18 18 17 16 17 17 18 18 17 18 19
3 2 1 2 3 2 3 3 3 5 5 2 4 2 3 5 4 1 5 9 6 6 4 8 12 15 15 13 13 13 14 18 21 23 24 26 27 27 26 26 26 26 27 27 28 29 31 30 27 27 26 25 26 26 25 25 24 25 26 26 25 25 25 24 23 22 21 22 23 22 20 20 20 18 17 17 18 19 19 20 20 20 20 19 20 19 18 17 17 17 17 17 18 18 18 18 18
2 4 2 3 2 2 3 3 3 2 2 3 4 1 5 3 1 2 7 9 6 6 6 8 11 12 11 11 12 12 12 16 20 22 24 25 23 24 25 27 27 29 31 30 29 30 31 32 30 29 28 27 27 27 27 26 25 26 26 26 26 25 25 25 24 24 24 23 24 24 22 21 21 20 18 18 19 20 20 20 21 21 21 21 21 19 17 16 16 16 16 17 18 18 17 17 18
2 5 4 5 4 2 2 3 2 1 1 3 4 2 5 3 1 3 8 7 6 7 6 7 10 11 11 10 11 14 14 18 23 23 22 21 22 25 27 28 30 31 31 32 32 32 31 32 33 32 29 28 29 29 28 28 26 27 26 25 25 25 26 25 25 26 26 25 25 26 24 23 22 22 20 19 20 21 21 21 22 22 22 22 21 19 17 16 16 16 16 17 17 17 17 17 17
4 7 5 2 2 1 1 3 2 1 2 2 5 1 3 2 2 6 8 5 7 10 7 7 8 9 10 10 10 11 13 19 24 22 20 23 26 28 29 31 32 31 32 34 34 32 32 31 33 34 32 30 30 30 30 30 29 28 27 26 25 25 26 26 26 26 27 27 27 27 26 26 25 24 22 21 21 22 23 22 22 23 24 23 21 19 18 17 16 17 17 18 17 17 17 17 17
5 6 5 2 4 3 3 2 3 3 1 3 4 2 4 2 7 10 6 4 7 9 8 7 8 7 8 9 8 8 12 17 19 21 25 29 32 32 33 35 35 33 34 34 32 32 32 31 31 35 35 33 32 32 32 31 31 29 28 28 26 25 25 26 27 27 28 28 28 28 28 28 27 26 25 23 22 24 24 23 23 24 24 23 21 21 20 19 19 19 19 19 18 18 18 18 17
3 3 5 1 5 4 7 2 2 4 0 2 3 1 6 6 11 10 5 6 8 8 8 7 7 7 7 7 7 7 11 14 17 24 29 30 32 33 35 36 36 35 34 33 33 32 33 31 30 33 36 36 34 33 33 32 31 30 30 29 28 27 26 26 26 27 28 28 29 30 30 29 29 29 27 26 25 25 26 25 24 25 24 23 23 23 22 22 22 23 22 21 20 19 18 19 19
1 1 3 3 2 4 7 1 4 3 1 2 5 2 7 8 11 10 5 7 9 8 8 6 6 6 6 7 7 8 10 15 21 26 29 30 31 32 34 35 35 36 34 33 34 34 33 32 31 32 36 38 36 34 33 33 32 31 30 30 30 29 28 27 26 27 28 28 29 29 31 31 31 31 30 29 28 28 28 29 28 26 26 25 25 25 25 25 26 25 24 23 21 20 19 19 19
2 2 3 3 2 3 7 1 5 5 2 2 6 2 6 7 9 7 1 6 8 7 7 6 6 7 7 7 7 8 9 15 21 25 28 30 31 31 33 34 34 35 36 35 35 34 34 34 33 33 34 38 38 36 34 33 33 31 30 30 29 29 30 29 28 28 28 28 29 29 30 31 31 32 31 31 30 31 31 31 30 29 28 27 27 27 27 27 28 27 26 25 24 22 20 20 20
3 3 2 3 2 2 4 3 1 4 1 1 2 2 4 4 6 7 3 4 6 6 7 7 7 8 8 7 7 8 8 10 14 20 27 30 31 32 33 34 35 36 37 37 35 35 36 35 35 35 35 37 39 38 36 33 32 32 30 30 28 28 28 29 29 29 28 28 29 29 30 31 31 32 33 33 32 32 33 33 32 31 30 29 29 29 29 29 30 29 27 26 25 23 23 22 21
4 1 1 4 3 3 2 4 3 4 5 1 1 3 6 7 7 7 6 2 5 5 8 8 8 8 8 7 7 8 8 9 10 18 28 31 32 33 33 34 34 36 37 38 37 37 37 37 37 37 37 37 38 39 37 34 33 32 30 29 29 28 28 27 28 29 30 29 28 29 29 30 31 31 33 34 32 32 34 35 34 34 33 31 31 31 31 31 32 31 29 28 26 24 25 24 23
3 3 2 3 3 3 3 3 2 2 3 2 2 4 9 11 10 8 7 5 6 8 9 8 8 8 8 7 8 8 9 10 12 21 30 33 33 34 34 34 33 35 37 38 38 36 36 37 37 38 38 38 38 38 38 35 33 32 31 30 28 29 28 28 28 30 31 31 30 29 29 29 30 31 33 33 33 33 34 36 36 36 35 34 33 33 32 33 33 31 30 29 27 25 25 26 25
7 6 4 3 2 2 4 2 3 0 2 3 5 6 9 9 11 10 8 7 7 9 9 8 8 8 8 7 7 8 9 11 15 23 30 32 34 35 35 35 34 35 36 37 38 36 36 36 37 38 38 38 38 37 37 37 35 33 32 31 30 31 31 30 30 30 31 32 32 31 30 29 29 31 32 33 33 34 34 36 37 37 37 36 36 35 34 35 35 34 32 31 30 26 25 26 27
6 5 4 2 3 1 3 1 4 1 2 5 6 6 9 9 10 11 9 7 7 9 10 9 9 8 8 9 10 10 10 11 14 19 26 30 33 34 34 34 34 34 34 36 37 38 38 38 37 38 38 38 38 38 39 39 39 37 35 35 35 34 33 32 32 32 32 33 34 33 32 31 30 30 31 33 34 35 36 36 37 38 39 38 37 37 36 36 36 36 34 32 32 29 28 28 30
6 5 5 3 1 1 3 1 5 3 2 5 4 5 11 9 9 11 8 8 8 10 11 11 12 10 8 9 12 12 9 8 8 13 19 25 29 31 32 32 33 34 35 37 38 39 39 38 38 39 38 38 39 40 40 41 42 41 40 40 38 36 35 34 33 33 33 34 34 35 34 32 31 31 31 33 35 36 36 36 37 39 40 39 38 37 38 38 38 38 36 32 30 30 30 31 33
5 4 5 2 1 1 3 3 4 2 2 4 5 6 12 11 9 11 11 11 10 11 12 12 12 10 9 11 12 11 9 8 8 9 13 21 26 28 29 31 34 35 36 37 37 38 38 38 38 39 39 40 40 40 40 41 41 41 40 38 37 36 35 35 34 32 32 32 34 35 35 35 34 33 33 34 35 36 36 36 37 39 40 40 39 38 37 38 39 39 39 36 32 30 29 32 35
4 4 4 1 3 1 2 4 4 1 1 2 4 6 10 10 7 10 12 11 10 10 11 11 10 10 12 13 11 10 10 10 10 10 9 14 20 23 27 31 33 33 32 33 33 33 35 37 38 38 38 39 39 39 39 39 38 37 36 34 32 33 33 33 33 32 31 32 33 34 36 36 35 35 34 34 35 37 38 38 39 40 40 40 41 40 38 38 39 39 39 38 36 32 28 32 37
1 3 5 3 2 2 2 2 3 3 3 2 4 5 8 6 5 7 7 5 7 8 8 9 10 11 12 11 10 9 10 10 10 10 8 9 15 22 27 30 31 31 31 33 34 34 35 36 36 36 36 36 37 36 36 36 34 32 32 29 26 27 28 29 31 33 33 33 34 35 36 37 36 35 36 36 36 38 39 39 40 41 40 40 41 41 40 41 41 41 40 39 39 37 32 32 35
3 1 4 6 5 5 2 3 5 5 5 4 4 4 6 5 5 8 8 6 7 6 4 8 10 9 9 10 10 9 7 8 8 9 8 9 14 19 23 25 26 29 32 33 34 34 34 34 34 34 34 34 35 35 34 34 33 32 31 29 27 26 27 29 33 36 37 36 36 36 35 36 36 35 35 36 37 39 40 40 40 40 40 42 43 41 40 42 43 43 42 42 42 41 37 33 36
1 3 3 5 7 7 4 3 4 1 3 3 3 3 5 8 6 8 6 6 9 8 7 7 8 8 9 10 9 7 6 7 6 6 5 8 12 15 18 22 25 28 31 32 31 31 32 32 32 33 33 33 34 34 34 34 34 33 33 33 32 31 30 32 34 35 35 36 36 35 34 34 35 36 36 36 36 39 42 42 42 41 41 42 42 40 41 43 44 44 44 45 44 43 40 37 38
2 4 3 5 7 6 5 6 3 2 2 4 4 4 2 8 6 5 2 6 9 10 10 10 8 9 11 9 6 6 8 7 6 6 5 8 12 16 19 22 25 27 29 28 28 29 30 30 31 31 32 32 32 33 33 34 35 35 35 34 34 34 34 34 33 32 32 32 33 34 34 34 34 35 37 37 36 38 41 42 40 40 42 42 41 42 43 43 43 43 43 45 44 42 42 40 39
4 5 4 5 7 6 5 7 3 1 2 5 5 2 2 7 7 3 4 5 9 10 10 11 10 10 10 8 6 7 8 6 6 7 6 7 13 18 20 21 24 26 26 26 27 27 28 29 29 29 30 31 31 32 33 34 35 36 35 35 35 35 35 33 31 29 29 29 30 32 33 33 34 35 36 38 37 36 40 44 42 39 41 42 41 41 42 41 41 43 44 44 42 42 43 42 39
3 3 5 5 5 5 5 5 3 3 2 4 6 2 2 6 8 5 4 3 7 9 9 8 8 8 8 6 4 4 2 1 2 3 4 7 12 17 18 19 21 23 23 23 24 25 26 27 28 29 30 31 31 32 33 34 35 35 36 36 36 35 34 31 29 28 28 28 30 31 32 33 34 35 36 39 39 35 35 42 44 42 42 42 42 42 42 42 43 44 45 45 45 44 43 42 41
4 5 7 7 6 5 4 3 4 3 3 6 8 6 5 4 7 4 3 4 6 6 6 5 4 5 2 1 4 5 4 3 3 3 3 5 8 12 15 16 17 19 20 21 22 23 25 26 28 29 29 30 31 31 32 33 34 35 37 37 37 36 34 32 30 30 29 29 31 32 33 34 34 35 36 37 41 40 35 37 40 41 42 42 42 42 42 43 44 44 45 46 46 45 43 43 42
6 5 5 4 4 5 5 5 4 1 5 7 6 4 5 5 7 5 5 6 6 5 5 4 4 3 0 2 2 2 3 3 4 4 3 4 6 9 12 15 16 17 19 21 23 23 24 26 28 28 29 29 31 31 32 33 34 35 36 37 37 36 35 34 33 33 32 32 32 32 32 33 33 34 35 36 39 41 40 38 38 40 42 43 43 42 43 44 44 45 46 47 45 44 44 42 41
5 5 6 4 2 3 3 3 0 3 6 5 4 1 3 7 7 7 10 11 8 5 4 5 6 5 4 3 2 2 4 4 4 4 4 4 4 8 12 15 17 19 21 22 23 24 25 26 27 29 30 30 30 31 32 32 34 35 36 36 36 35 35 35 35 35 34 34 33 32 31 32 32 32 34 36 38 40 42 41 39 40 41 42 43 43 43 43 44 44 44 44 43 43 44 43 42
4 5 5 5 3 1 3 3 2 4 5 4 3 2 4 5 4 9 14 13 7 3 5 6 6 6 5 4 4 4 4 3 4 4 5 4 6 9 12 15 18 21 23 23 23 24 25 26 28 29 30 30 30 31 32 33 34 35 35 35 35 35 35 36 36 36 35 35 34 34 34 33 34 34 34 36 37 38 41 41 40 41 41 40 41 41 41 42 44 45 44 43 42 42 43 43 43
5 5 6 6 5 5 4 3 3 4 4 3 3 2 3 2 3 6 9 9 7 5 4 3 2 3 3 3 4 4 3 4 4 5 6 6 9 13 15 16 18 21 22 23 23 24 25 27 29 30 31 31 31 32 33 34 35 34 34 35 35 36 36 36 36 36 35 35 34 34 35 34 35 35 34 34 35 36 39 40 39 39 39 39 39 40 41 42 42 43 43 42 41 40 41 42 42
3 3 5 4 5 5 3 3 5 3 1 2 2 3 4 4 6 8 7 8 8 7 5 3 3 2 0 2 4 4 5 6 6 6 6 8 11 14 16 17 19 20 20 21 23 25 27 28 29 31 31 31 32 33 34 34 34 34 34 35 35 35 35 35 35 35 35 34 34 33 34 34 35 34 34 33 33 34 36 39 40 39 38 38 39 39 40 41 41 40 41 40 39 38 39 41 42
2 2 4 5 5 7 4 3 0 3 2 4 2 5 5 3 7 9 7 7 8 8 8 6 5 1 0 4 5 5 6 6 6 7 7 7 10 13 16 18 20 21 21 23 25 26 28 29 29 30 30 30 32 34 35 35 34 34 35 35 35 35 35 36 36 36 35 33 33 33 33 33 33 34 34 33 31 31 32 35 38 39 39 39 39 39 39 39 40 41 41 39 36 36 39 41 42
5 3 6 3 2 4 4 1 3 2 3 4 2 6 5 2 5 6 4 4 6 8 7 7 6 4 4 6 6 6 7 6 6 6 6 7 10 14 18 21 23 23 23 24 25 26 27 28 29 30 30 31 32 33 35 35 35 35 35 34 34 35 35 35 35 35 34 33 33 33 32 32 32 32 32 32 31 29 30 32 35 37 39 39 39 38 37 38 39 40 39 36 35 36 39 41 41
5 4 4 3 2 1 1 2 2 1 3 5 4 5 4 5 6 3 4 6 9 10 8 7 6 6 4 5 6 7 6 5 6 6 6 7 9 15 18 20 21 22 22 23 23 24 26 27 28 29 30 30 30 32 34 35 35 35 34 33 33 33 33 33 34 33 33 34 35 35 34 33 32 31 31 31 30 29 29 30 32 34 36 38 39 38 37 36 37 38 37 35 35 37 38 39 39
2 1 1 2 3 4 3 3 3 3 3 4 4 3 4 6 6 5 7 10 10 9 6 2 3 2 4 6 6 6 4 4 5 5 6 7 10 16 17 17 18 18 19 20 21 22 25 26 28 29 30 29 29 31 34 35 36 35 34 33 32 32 32 32 32 32 33 34 34 35 35 34 32 31 30 30 30 30 29 29 31 32 34 35 37 38 37 36 36 35 35 35 36 37 37 37 37
3 3 3 2 1 2 2 2 2 4 4 3 3 5 7 5 5 7 8 7 7 6 3 3 2 4 6 6 6 6 4 3 4 5 6 7 9 13 14 15 16 16 17 18 19 21 23 25 27 28 29 30 31 33 34 36 36 35 34 33 33 32 31 31 31 31 33 34 33 34 34 33 33 32 31 30 31 31 31 31 31 32 32 33 35 36 36 36 35 34 34 34 35 36 36 36 35
7 6 7 7 5 4 2 3 2 2 4 5 3 6 11 6 5 5 6 5 5 5 3 1 3 6 6 6 6 6 5 6 6 6 6 5 5 8 10 12 13 14 16 17 18 20 21 24 26 28 30 32 33 33 34 35 35 35 34 33 33 31 30 30 31 32 33 33 33 33 33 32 33 33 32 31 31 31 31 31 30 31 32 33 34 34 34 34 34 34 34 35 35 34 34 34 33
Wind_Direction
284 285 294 331 3 351 329 82 67 320 77 65 260 85 135 169 109 94 62 53 61 18 62 97 76 68 82 109 122 106 65 28 212 151 171 167 151 154 162 164 161 157 158 156 156 152 144 138 134 132 128 125 119 113 107 104 104 102 98 91 82 79 80 76 71 74 80 85 86 88 90 93 96 97 98 96 97 96 96 95 96 96 90 85 82 82 83 84 83 83 86 92 96 99 100 98 96
287 288 309 337 340 2 302 99 81 331 50 48 314 99 144 43 57 93 99 89 120 181 131 94 82 75 97 124 127 89 43 5 77 114 103 137 144 151 159 162 159 157 157 155 156 153 147 139 136 132 127 125 121 116 111 111 111 106 102 93 87 83 81 79 77 78 78 84 88 91 93 94 96 98 99 97 98 99 100 95 92 90 86 83 82 81 83 84 84 85 87 92 98 101 100 99 98
297 305 341 349 315 76 35 38 83 74 70 93 314 305 89 78 100 123 121 122 148 153 104 69 64 67 84 90 74 73 84 10 81 90 108 134 139 148 155 158 155 156 156 154 155 154 148 140 137 134 131 129 125 119 118 121 117 112 108 98 93 87 85 81 80 83 80 84 89 93 96 96 98 98 99 100 100 99 100 95 89 87 84 83 84 84 85 86 87 89 91 95 101 102 101 100 98
316 328 332 2 25 36 48 51 139 116 99 149 153 302 100 119 140 127 126 136 143 118 95 66 51 357 78 91 87 83 119 108 107 113 124 141 144 148 152 154 153 155 155 155 154 153 149 142 139 137 136 134 130 127 127 128 122 120 116 106 100 94 91 85 81 85 84 85 90 93 96 98 100 101 101 102 101 99 96 93 91 88 85 88 91 90 88 88 88 90 96 98 102 102 100 99 96
330 341 299 347 70 46 81 77 100 95 125 180 127 158 143 141 141 125 117 102 86 82 86 100 84 323 67 93 121 107 124 126 132 130 130 143 146 148 151 151 150 152 154 156 155 153 151 146 142 141 141 139 138 136 136 132 126 125 122 114 107 99 94 90 82 84 86 87 92 94 97 98 99 101 102 103 103 101 99 94 91 91 91 95 96 94 92 89 87 92 99 99 101 101 99 97 95
334 354 288 246 112 159 92 60 59 74 207 167 126 170 162 144 140 130 110 73 50 68 78 92 115 97 67 20 62 92 157 140 135 137 140 144 148 150 150 149 147 151 154 156 159 157 153 151 146 143 143 143 145 144 141 136 130 125 125 120 111 103 97 96 88 85 88 90 95 98 99 99 100 101 102 103 103 101 102 97 94 95 95 94 92 91 90 88 88 95 100 99 102 103 100 97 94
338 353 31 63 348 59 86 108 136 98 357 111 130 159 156 145 143 129 125 88 25 28 55 79 123 101 85 70 73 29 45 147 140 139 146 146 148 149 148 149 148 152 155 156 160 159 155 156 150 144 143 146 151 149 145 140 134 127 126 123 114 107 102 100 95 92 91 94 99 101 103 102 101 103 103 103 103 102 101 99 99 100 96 95 94 91 90 90 90 96 99 99 105 105 102 98 94
322 311 110 81 17 20 81 113 164 164 35 60 129 150 149 150 148 129 143 131 81 42 57 70 102 90 52 67 101 20 75 128 136 138 145 147 148 147 148 149 149 156 159 157 160 160 157 159 155 148 144 147 153 152 150 145 138 132 130 127 120 116 110 103 98 96 93 95 101 105 108 108 106 105 106 106 107 105 103 103 103 103 100 99 99 95 93 93 92 96 98 102 108 107 105 101 96
261 205 22 77 58 10 55 79 73 126 111 87 119 144 150 153 151 128 120 116 135 132 130 180 105 106 126 58 97 80 85 122 135 139 143 147 150 147 149 153 154 160 160 160 162 161 159 161 160 152 147 148 151 151 152 149 141 136 133 133 131 125 117 109 101 97 96 97 101 107 111 114 112 109 109 110 109 108 108 107 105 104 103 103 102 98 97 95 95 97 99 107 111 108 107 104 100
246 162 47 79 46 17 20 278 87 102 153 143 132 149 155 153 141 126 121 124 133 110 187 184 98 116 134 93 110 161 132 136 137 142 145 147 150 148 152 161 163 163 160 161 163 164 162 163 161 154 150 148 147 148 151 150 145 139 136 139 138 131 123 116 108 100 100 99 103 107 111 118 118 114 111 114 118 117 114 110 107 105 104 104 103 102 101 101 101 100 104 113 113 109 107 105 104
21 340 83 83 33 48 170 157 139 147 160 126 102 162 161 146 117 115 121 120 122 119 174 75 85 128 106 105 255 157 149 149 144 146 150 149 151 151 155 166 170 167 162 161 165 167 164 164 162 157 154 152 149 147 151 152 150 144 141 146 144 137 129 122 116 109 105 102 105 109 113 120 123 120 115 119 126 123 118 113 110 107 106 108 111 112 108 108 107 103 111 118 116 112 108 105 104
58 329 69 84 100 168 175 156 168 160 137 115 117 242 151 113 103 121 125 125 128 119 167 151 123 135 94 86 256 154 150 157 156 151 153 152 152 152 155 167 171 167 164 163 168 169 167 167 163 160 159 157 152 149 153 156 156 150 147 152 149 143 136 129 122 116 112 107 109 112 116 123 128 128 122 123 127 124 121 118 115 112 112 114 120 121 112 112 110 110 120 123 119 116 109 106 105
112 188 78 96 207 160 150 145 171 122 99 182 177 217 121 100 138 161 137 126 130 114 182 214 138 89 96 94 131 157 160 164 162 157 156 152 153 153 153 164 167 167 166 165 170 171 170 170 166 164 164 162 158 154 156 158 160 156 154 157 153 149 143 136 132 125 119 113 111 114 118 122 130 133 130 129 128 127 125 121 120 118 118 116 118 119 112 115 116 119 127 126 121 118 114 112 110
155 167 103 177 270 133 147 121 129 106 264 242 183 188 112 113 172 151 121 99 95 138 188 230 121 91 103 113 125 188 179 165 162 161 157 152 154 154 154 161 164 169 170 169 172 175 173 173 171 168 167 167 165 161 159 160 164 162 161 162 158 155 150 144 144 137 127 120 113 114 119 122 128 134 135 133 132 133 131 128 127 125 124 119 120 121 115 117 119 122 128 126 122 120 119 118 113
167 145 96 98 337 358 211 117 126 118 165 218 179 164 91 43 126 80 109 115 61 209 161 34 101 105 153 163 193 202 175 165 160 160 157 155 159 157 159 162 166 171 171 173 174 178 178 176 174 172 173 173 172 168 165 164 167 168 166 166 164 162 159 155 152 143 133 127 117 116 121 124 127 133 136 136 137 139 137 135 134 131 128 125 126 127 120 116 116 122 127 126 124 124 123 119 114
132 101 75 40 328 321 262 125 112 109 196 200 177 134 87 331 67 76 185 134 120 275 68 39 48 103 153 181 194 168 163 163 159 160 159 162 166 160 161 162 167 171 170 176 177 180 183 181 178 178 178 178 178 174 171 169 169 171 171 170 170 170 169 165 159 149 142 135 128 124 125 127 128 131 136 137 138 140 139 138 138 134 129 128 128 127 123 116 115 123 127 127 129 128 124 120 117
62 74 71 349 264 203 246 167 138 147 202 199 176 131 114 313 11 83 285 86 112 113 72 36 17 76 120 147 153 150 154 159 158 162 163 168 171 162 161 159 162 169 171 178 181 181 184 186 183 183 184 183 183 180 178 177 172 172 175 175 176 177 176 173 167 160 156 149 142 139 135 135 134 134 135 137 139 141 142 141 139 134 131 131 126 124 122 116 119 125 126 127 133 132 126 123 121
61 83 108 232 229 279 269 202 176 144 153 184 189 154 129 157 219 140 43 48 83 100 83 65 41 52 86 113 134 143 151 156 160 165 165 170 173 165 164 162 162 168 172 179 184 184 185 188 188 187 189 188 187 185 185 184 179 176 178 180 181 183 181 180 176 171 168 161 154 152 149 146 142 141 139 140 143 144 145 143 142 138 137 134 126 124 121 119 124 129 129 132 137 135 129 126 125
97 125 126 222 207 343 310 196 143 128 156 176 192 168 137 170 176 134 150 198 117 107 93 79 70 63 89 114 131 142 151 157 166 169 168 175 178 171 169 170 170 171 174 180 185 188 187 188 192 191 191 192 191 190 190 190 188 183 183 186 185 186 186 185 183 178 176 168 162 162 159 155 151 150 148 148 149 148 147 146 145 142 140 136 131 129 124 126 132 134 134 137 142 142 134 128 128
149 116 111 243 200 139 336 10 74 143 156 156 187 171 135 179 159 138 171 164 153 163 165 113 123 160 144 137 140 146 154 162 171 172 172 180 183 179 175 176 180 181 180 181 184 188 190 190 193 193 192 195 193 193 194 194 195 192 190 191 190 190 190 190 188 184 182 172 165 170 166 160 161 161 157 158 157 155 154 153 152 149 147 143 140 136 133 136 140 140 141 144 147 148 142 132 131
138 112 155 233 174 106 326 343 14 24 138 153 166 128 120 182 151 152 148 127 227 227 201 181 183 175 167 167 157 156 160 167 176 178 179 184 188 188 185 184 187 189 186 185 185 187 191 192 192 192 192 197 197 196 197 197 197 197 196 196 194 195 195 194 192 188 185 177 171 177 175 167 168 169 167 167 165 164 162 160 159 157 154 151 149 146 143 146 148 149 150 151 152 154 149 140 136
78 124 166 212 131 114 285 312 1 13 101 119 116 115 150 159 139 166 142 143 226 229 207 200 190 169 168 171 165 164 167 173 180 184 187 189 192 194 193 191 190 192 193 193 193 190 192 193 193 191 191 197 200 199 199 198 198 199 199 199 198 199 200 198 196 193 188 181 177 183 185 179 177 176 175 174 172 172 169 167 164 162 160 157 158 157 154 157 157 157 158 159 160 160 156 149 144
106 215 76 26 100 122 237 311 355 30 84 92 111 144 159 115 159 201 151 181 215 206 191 190 184 168 164 161 160 168 176 182 187 190 191 192 196 197 195 195 194 194 196 200 200 196 193 194 195 194 193 197 200 199 198 197 198 200 201 201 201 202 203 202 201 198 191 184 182 187 192 191 187 183 181 180 178 177 174 172 169 167 165 163 164 165 163 164 163 162 163 166 167 167 163 158 154
108 181 354 54 84 106 158 139 22 59 91 136 128 91 129 142 183 221 189 224 215 209 191 133 141 151 151 153 165 178 182 187 194 195 195 195 198 199 198 197 197 198 198 201 203 201 198 197 196 195 197 198 199 199 198 198 198 199 202 203 204 205 205 206 204 202 196 187 187 193 196 196 194 191 188 184 183 181 179 176 173 171 170 169 168 168 168 168 168 168 169 170 170 170 167 164 162
102 162 210 93 76 116 134 100 68 70 96 99 72 86 221 186 172 136 233 242 218 202 160 108 120 136 147 162 175 182 184 192 198 199 200 201 202 201 201 201 200 202 202 203 204 204 203 201 198 195 197 199 200 201 199 199 199 198 202 203 205 206 207 208 207 205 201 192 192 199 201 200 199 197 193 188 187 184 182 179 177 175 174 173 171 171 174 173 173 174 175 174 172 170 168 167 166
195 151 149 109 108 151 117 91 86 91 109 87 84 304 280 242 191 253 243 233 205 171 132 126 131 141 162 172 178 183 186 193 197 200 203 204 203 203 204 204 204 206 208 207 207 208 207 204 201 198 199 202 202 202 201 200 199 199 202 204 205 207 207 209 209 207 206 199 197 201 205 205 204 202 198 192 191 188 185 184 182 179 178 176 175 176 179 181 180 181 181 177 173 172 169 169 169
162 117 108 117 141 165 111 124 157 115 94 106 119 247 286 290 313 261 256 239 177 153 145 150 145 157 177 178 185 188 188 195 196 196 199 202 203 205 205 205 207 209 209 209 210 211 210 207 206 201 200 204 203 203 203 201 201 201 203 205 206 207 208 209 210 209 209 206 202 203 206 207 207 206 202 197 194 190 189 189 186 183 181 180 180 182 186 190 188 185 184 179 176 173 170 171 173
125 109 83 80 108 2 70 128 176 110 69 140 126 188 291 356 297 230 241 240 164 162 171 169 163 175 184 185 192 191 197 202 196 190 191 198 204 205 206 206 207 209 209 210 212 212 211 211 210 204 201 205 205 204 205 204 205 205 205 206 206 207 208 208 211 210 210 210 207 205 205 207 207 206 205 204 198 193 193 193 191 189 187 185 185 187 191 196 193 185 184 182 179 177 173 172 176
126 106 89 336 16 352 257 164 166 122 96 224 126 357 297 197 236 239 224 187 154 162 176 181 186 190 191 195 195 197 207 203 193 193 197 201 204 204 206 209 208 208 211 212 212 212 212 212 210 205 202 205 208 207 208 208 209 209 207 208 207 206 208 210 211 212 211 211 210 208 208 208 207 205 206 206 202 197 197 198 197 196 195 193 193 194 195 196 192 185 183 184 183 182 177 174 176
129 97 101 74 19 327 261 221 131 122 147 265 106 323 280 240 246 261 235 170 146 163 189 194 199 202 203 204 203 211 213 201 195 201 206 206 207 207 208 211 210 210 212 211 211 212 213 213 209 205 202 205 208 210 211 212 214 213 211 210 209 207 208 211 213 214 213 212 213 212 211 210 209 207 206 206 204 200 200 202 202 202 202 200 199 201 200 195 191 187 186 187 186 185 181 178 179
106 55 58 79 81 292 284 232 134 138 299 13 90 197 270 272 269 281 253 174 153 177 208 213 214 216 214 213 213 220 218 207 206 208 210 211 211 211 211 211 210 210 211 210 211 212 212 212 209 206 205 205 208 210 213 216 217 217 215 214 213 213 213 215 216 217 216 214 214 214 215 214 212 209 208 207 204 201 202 204 204 203 204 204 203 205 204 196 192 191 191 189 186 185 184 181 181
58 83 329 342 144 263 306 310 155 161 276 39 97 208 274 282 282 302 305 157 156 185 219 234 233 229 225 223 218 221 226 218 213 212 213 215 215 215 215 214 210 210 211 212 212 211 210 210 209 209 208 207 208 210 212 215 218 217 217 215 214 215 217 220 221 220 220 218 216 216 217 217 215 213 211 209 207 204 203 204 205 205 204 204 204 206 205 199 194 193 194 194 189 184 183 180 180
360 104 235 281 183 247 306 315 201 142 116 5 128 218 272 283 288 324 354 148 157 189 223 235 234 232 228 224 220 220 227 225 219 216 215 215 217 219 219 218 214 211 211 212 212 209 208 209 209 211 211 209 209 210 211 213 215 216 216 214 213 214 216 219 220 221 222 221 219 219 218 217 217 217 216 213 210 208 205 205 206 205 204 204 206 207 206 203 199 195 194 196 195 188 183 179 176
311 50 227 252 203 179 237 284 307 87 102 225 256 232 251 268 280 304 312 203 170 208 235 239 235 236 233 221 217 218 217 220 220 216 214 215 217 220 221 221 219 215 212 212 213 212 210 209 210 212 212 211 211 211 210 212 213 214 215 215 215 216 217 218 219 220 222 222 222 221 220 218 217 219 218 215 213 213 210 208 208 206 205 205 206 207 207 204 201 199 194 193 197 193 185 180 175
203 203 214 266 220 178 203 244 296 67 101 239 270 260 255 268 277 278 274 236 203 224 235 239 240 238 240 228 215 216 216 222 222 214 214 215 216 218 220 221 219 216 214 213 214 213 211 211 211 212 212 212 213 212 211 211 211 212 214 215 219 221 221 219 218 221 222 222 223 223 223 220 218 218 218 217 217 217 214 210 210 208 206 206 206 205 205 202 199 198 195 191 192 192 189 183 176
164 182 169 178 191 227 244 251 299 57 114 250 241 250 259 265 274 274 268 248 224 237 245 247 249 242 242 237 227 225 220 228 228 219 216 216 216 216 217 218 217 216 215 213 212 211 211 211 211 212 214 215 214 212 211 211 210 210 211 213 217 220 220 220 220 222 223 223 222 223 224 222 220 219 219 221 221 221 218 213 211 209 208 206 204 203 203 202 200 198 196 193 190 187 186 183 178
131 123 108 146 143 311 285 279 306 336 113 257 245 258 270 265 269 271 270 267 247 243 247 247 245 242 239 236 238 234 228 237 235 224 221 218 217 216 214 214 214 212 212 212 210 210 211 211 211 212 214 214 212 212 211 210 210 210 210 213 216 216 217 220 223 224 224 224 224 224 224 224 224 222 221 223 223 222 220 217 214 211 208 206 205 206 207 207 204 201 198 194 191 185 181 181 181
90 102 78 31 116 198 271 267 302 349 80 273 301 307 279 267 266 269 270 267 253 236 234 241 239 236 238 237 241 240 239 252 241 225 222 218 217 214 211 210 209 209 209 210 210 211 211 210 211 213 213 212 212 213 212 211 212 212 212 215 217 217 218 220 223 223 222 222 224 225 225 226 227 226 224 223 222 220 218 217 216 212 209 208 207 208 209 209 206 202 196 190 189 187 184 182 180
78 94 90 22 281 188 294 315 307 7 101 274 334 333 284 271 259 259 258 248 245 237 231 238 238 234 239 236 239 243 246 255 247 234 222 214 213 210 207 207 208 210 210 209 211 211 209 209 212 215 214 213 214 214 213 213 214 214 215 217 218 219 220 220 222 223 222 221 222 224 226 227 228 229 227 226 225 222 219 220 219 215 211 210 207 205 205 205 202 200 197 192 188 188 187 186 186
81 97 108 251 269 165 275 300 296 290 138 272 336 319 283 284 272 258 256 249 253 255 243 243 241 233 237 237 237 235 234 240 242 245 232 210 207 204 204 206 208 209 208 208 210 210 209 210 212 214 215 215 214 214 215 215 215 215 217 220 221 222 222 221 222 224 225 224 223 224 226 228 229 229 228 226 227 227 225 223 222 218 214 212 208 205 205 205 203 199 197 194 188 184 184 188 191
328 132 137 197 245 151 192 280 316 343 358 1 7 327 289 303 320 286 281 272 262 261 248 245 244 238 242 251 250 233 224 227 229 236 231 200 197 199 202 206 206 206 207 209 210 211 211 212 214 215 216 216 215 215 215 215 215 215 216 219 221 223 223 222 222 223 225 225 226 226 226 227 228 229 230 230 229 228 226 222 219 217 216 214 211 209 211 211 209 204 200 197 194 190 188 189 192
313 229 173 185 167 139 128 21 27 26 343 328 38 2 291 303 317 289 299 313 288 292 280 248 250 252 249 253 251 237 229 230 228 232 220 195 195 198 202 205 204 205 209 212 213 213 214 215 216 217 218 218 218 217 217 216 216 216 214 212 213 214 216 218 220 221 222 223 226 228 228 229 229 228 229 231 231 229 228 226 223 220 218 216 211 211 214 213 210 209 206 203 201 201 197 192 194
294 250 194 162 127 118 119 69 52 63 270 288 66 95 272 300 295 258 273 309 302 309 306 271 262 259 247 243 242 237 238 237 240 247 217 193 196 196 201 205 204 207 212 214 215 215 216 218 219 219 220 220 220 219 218 217 217 217 216 215 214 214 215 219 221 223 224 224 227 229 230 231 230 228 226 227 229 227 225 226 225 222 220 217 215 216 216 213 212 212 211 208 206 205 202 198 198
223 241 159 115 104 117 133 108 107 216 254 321 14 109 220 293 279 240 291 326 311 303 296 285 268 251 248 252 250 243 244 231 222 229 209 194 198 198 203 206 207 211 214 214 215 216 217 220 221 221 221 221 221 220 219 218 217 217 217 217 218 219 222 225 226 226 228 228 229 231 232 232 231 230 227 226 229 228 225 223 223 220 219 219 219 219 215 212 214 215 212 210 207 205 205 206 204
234 225 144 111 115 130 120 101 102 2 23 321 314 102 173 274 275 303 355 322 296 287 278 275 268 260 261 264 255 247 251 233 207 216 210 198 201 204 208 211 212 215 217 217 218 219 220 221 221 221 221 221 221 220 219 219 219 219 218 218 220 223 226 229 230 230 230 229 230 231 232 232 231 231 229 225 226 228 226 225 225 224 221 219 220 220 218 217 221 219 213 209 207 207 210 211 210
214 168 90 63 73 78 78 97 102 42 30 256 254 197 179 267 277 301 349 292 265 272 273 268 272 280 275 256 220 203 222 174 169 201 192 186 199 207 209 212 216 218 220 222 222 222 221 220 219 219 220 220 220 220 219 219 219 220 220 220 221 223 225 227 230 232 231 229 229 229 230 231 232 232 231 227 226 227 225 221 223 225 223 219 219 220 221 223 223 220 216 213 211 212 213 213 214
122 88 59 39 26 33 41 61 80 59 291 251 237 206 185 266 280 255 231 227 225 251 282 283 291 321 337 157 161 157 131 109 118 117 125 147 173 194 200 205 213 216 219 221 221 221 220 218 217 217 219 219 219 219 218 219 219 220 222 223 223 225 225 225 227 229 230 228 228 229 231 233 233 233 233 230 228 229 228 222 220 223 224 223 222 222 222 224 223 220 218 216 215 215 216 216 215
88 80 78 58 356 11 17 3 46 98 257 261 260 223 177 230 263 248 250 263 243 245 278 275 263 293 304 157 179 184 172 177 169 150 145 138 145 170 188 198 205 209 212 215 217 217 217 216 215 216 217 217 217 218 218 219 219 220 223 225 226 227 227 226 226 227 228 228 229 231 232 234 235 234 234 233 230 229 229 227 224 223 224 224 225 226 225 225 223 219 216 214 214 216 217 217 215
72 91 97 87 351 9 1 313 229 226 247 260 293 307 206 232 247 253 264 269 257 249 264 238 219 237 248 248 276 255 220 214 201 180 190 199 188 188 191 194 198 203 209 213 214 214 214 214 214 215 217 216 216 217 218 219 220 222 224 225 227 229 229 229 229 230 230 231 232 232 232 232 232 232 232 231 230 227 226 227 226 224 224 224 225 225 225 224 221 216 213 213 216 218 219 219 218
135 138 131 132 137 136 254 259 267 267 257 269 309 300 262 277 263 238 247 260 266 271 259 232 206 215 237 248 248 241 234 232 229 219 216 224 232 225 213 204 201 204 209 211 212 213 212 213 214 216 218 217 216 217 218 220 222 224 225 227 229 229 230 231 232 233 233 234 235 235 235 234 232 232 232 231 230 227 225 225 224 224 224 225 226 225 225 225 223 218 216 217 219 221 222 221 220
184 156 135 153 162 164 200 207 212 247 270 290 296 256 209 229 273 239 235 259 278 284 272 269 278 251 238 241 244 255 271 259 242 230 226 226 230 232 229 221 215 213 211 211 212 213 213 214 215 217 218 217 217 218 219 221 223 225 227 228 230 231 232 233 234 236 236 236 237 238 237 236 235 236 236 236 234 230 228 227 226 225 225 225 225 226 226 225 221 218 217 219 221 223 223 221 222
233 140 115 179 190 154 153 193 183 178 296 294 251 236 212 213 275 277 259 266 281 294 298 310 310 296 203 252 262 277 273 253 237 229 233 234 230 231 232 230 229 226 221 218 218 217 216 217 217 218 220 219 219 220 221 223 225 226 228 229 230 231 233 234 236 237 237 237 238 239 239 239 239 239 239 240 238 235 233 232 229 228 228 228 228 227 226 223 220 219 219 220 221 224 225 224 225
204 146 179 216 180 128 126 259 344 93 253 268 209 250 284 320 291 279 269 274 296 312 306 283 268 258 278 279 281 280 263 248 237 227 229 235 234 236 235 234 234 233 232 230 228 225 223 222 221 220 222 222 222 223 223 225 226 227 229 230 231 232 233 235 236 237 237 238 239 240 241 241 240 240 239 239 240 240 239 237 234 231 229 228 228 227 226 224 222 221 220 221 224 227 227 226 227
133 183 215 204 92 90 111 222 346 37 251 275 245 246 280 314 277 299 351 329 299 301 297 290 306 2 352 309 296 274 259 255 253 245 247 246 237 237 235 236 238 238 240 240 238 234 230 228 227 225 224 224 224 224 225 226 226 227 229 230 231 233 234 236 238 239 239 238 238 238 239 240 240 239 239 239 239 241 242 241 239 235 231 227 226 226 225 224 223 222 222 225 229 229 228 227 227
135 186 192 120 118 237 117 159 202 189 246 279 275 259 255 217 229 293 323 292 287 289 284 288 329 23 359 293 275 272 278 282 276 265 266 261 249 248 244 242 243 242 244 246 244 239 234 233 232 231 231 231 229 227 227 228 228 228 230 232 233 235 236 238 239 240 240 239 239 238 237 238 238 238 238 237 238 240 242 242 241 239 235 230 226 224 223 223 223 223 224 226 228 227 226 226 227
39 100 124 98 139 172 170 172 169 162 206 262 278 285 257 224 198 187 223 249 261 269 279 308 61 49 286 278 287 303 305 274 265 261 265 264 257 259 258 255 253 249 247 247 244 241 238 237 236 235 236 235 233 231 229 229 229 229 231 233 235 236 237 239 240 241 241 240 240 240 239 239 238 238 238 237 238 241 242 242 242 241 238 234 231 227 226 224 223 224 225 225 225 225 226 228 229
167 161 184 198 94 110 183 192 138 143 171 216 257 273 264 235 192 187 204 226 224 204 164 127 158 270 287 294 299 306 305 271 262 254 252 256 259 265 267 264 260 256 253 250 246 245 244 242 239 239 239 237 235 234 231 230 230 229 230 232 234 236 237 239 241 242 242 242 242 242 241 241 239 238 238 238 240 242 243 242 241 242 241 240 237 233 230 227 225 225 224 224 224 224 225 227 228
177 179 190 189 160 131 160 242 252 146 177 184 182 269 272 239 180 186 177 164 159 146 116 41 304 310 328 326 307 316 337 333 319 294 275 277 280 276 269 260 255 253 252 249 246 246 246 245 243 243 242 240 238 236 234 233 232 230 231 232 234 236 237 239 240 242 243 243 243 242 242 242 242 241 239 240 241 241 241 240 239 242 243 242 239 235 232 230 229 228 227 227 226 224 224 225 225
Height
799 799 798 799 798 799 801 802 819 824 826 842 839 834 831 822 824 827 829 828 830 831 827 827 825 825 829 835 841 843 844 845 847 850 854 849 844 848 850 850 852 852 853 854 856 856 857 858 858 859 860 860 861 861 862 862 863 864 864 864 864 864 864 865 865 865 865 864 865 865 866 866 867 868 868 868 869 869 868 868 868 868 868 868 868 869 869 869 868 868 868 867 867 867 868 868 869
798 799 798 799 797 801 806 805 827 835 834 847 840 833 831 824 829 833 832 831 832 830 825 825 825 827 830 833 835 839 846 844 842 843 844 844 846 849 849 851 851 852 854 854 856 857 857 858 859 860 860 861 861 862 863 863 864 864 865 865 865 865 865 866 866 866 866 866 866 866 867 867 868 869 869 870 870 870 869 869 869 869 870 870 870 870 870 870 870 869 869 869 869 869 869 870 870
799 799 798 800 799 802 807 810 830 840 843 850 840 831 830 832 836 835 831 829 828 825 825 825 826 829 831 836 836 841 850 845 841 841 843 845 847 849 850 851 851 853 853 854 856 857 858 858 859 860 860 862 862 863 864 864 865 865 865 865 866 866 867 867 867 867 867 867 867 867 868 868 869 870 870 871 871 871 871 871 871 871 871 871 872 872 872 872 871 871 871 871 871 871 871 871 871
798 799 798 799 803 807 813 820 829 836 844 848 842 833 831 836 836 832 829 827 825 824 825 827 830 830 831 840 839 842 849 845 843 842 844 846 846 849 850 851 853 853 854 855 856 857 858 859 859 860 861 862 862 863 864 865 865 866 866 866 867 867 868 868 869 868 868 868 868 869 869 870 870 871 872 872 872 872 872 872 872 872 873 873 873 874 873 873 873 872 872 872 873 873 873 873 873
799 799 798 799 808 812 817 825 828 834 840 840 841 838 833 834 832 831 829 827 825 825 826 827 833 831 830 837 837 844 848 844 844 842 843 846 847 849 850 852 853 853 855 855 856 857 858 859 860 860 861 862 863 864 865 866 866 866 867 867 868 868 869 869 869 869 869 869 869 870 870 871 872 872 873 873 873 873 873 873 873 873 874 874 874 875 874 874 874 874 874 874 874 874 874 875 875
799 799 798 800 805 809 819 829 832 835 833 829 836 838 833 831 829 830 828 827 825 825 826 827 832 833 836 839 837 842 844 843 843 842 843 845 847 849 850 852 853 854 855 856 857 858 858 859 860 861 862 863 864 864 865 866 866 867 867 868 868 869 870 870 870 870 870 871 871 871 872 872 873 873 874 874 874 874 874 874 874 875 875 875 875 875 875 876 875 875 875 876 876 876 876 876 876
799 801 801 805 807 810 825 834 834 834 828 824 830 833 831 829 828 828 828 828 828 826 826 827 829 834 842 840 840 842 840 841 841 841 843 844 847 848 850 852 853 854 855 856 857 858 859 860 860 861 862 863 864 865 866 866 867 867 868 869 869 870 870 871 871 871 872 872 872 872 873 873 874 874 875 875 875 875 875 875 876 876 876 876 876 876 877 877 877 877 877 877 877 877 877 877 877
799 803 803 811 818 820 829 834 833 832 827 823 825 827 827 826 826 826 828 828 830 829 827 828 827 835 843 838 843 844 839 840 840 842 843 844 847 848 850 851 853 854 855 857 857 858 859 860 861 862 862 863 864 865 866 867 867 868 869 869 870 870 871 872 872 872 873 873 873 873 873 874 874 875 876 876 876 876 877 877 877 877 877 877 877 878 878 878 878 878 878 879 878 878 879 878 878
799 803 805 814 824 827 833 836 833 829 826 824 824 824 822 822 822 824 827 828 829 829 829 828 826 836 843 841 846 845 841 842 841 843 844 845 847 848 850 850 852 853 855 856 857 859 859 861 861 862 863 864 864 865 866 867 868 868 869 870 870 871 872 872 873 873 873 873 873 873 874 874 875 876 876 877 877 878 878 878 878 878 878 878 878 879 879 879 879 880 880 880 880 880 880 880 880
800 803 808 817 827 833 837 836 832 829 826 824 823 822 820 820 821 823 826 828 828 828 829 826 827 835 840 845 848 844 843 843 842 844 844 846 847 848 850 850 851 852 854 855 857 858 859 861 861 863 863 864 865 866 867 867 868 869 870 870 871 872 872 873 873 874 874 874 874 874 874 875 875 876 877 878 878 878 878 879 878 878 878 879 879 880 880 880 880 881 881 881 881 881 881 882 881
806 806 808 821 831 836 839 837 833 829 826 823 822 819 818 818 820 823 824 827 827 827 828 826 830 834 839 846 847 843 843 843 842 844 845 846 847 849 850 850 851 852 854 855 856 858 859 860 861 863 863 864 865 866 867 867 868 869 870 871 872 872 873 874 874 875 875 875 875 875 875 875 876 877 878 878 879 879 879 879 879 879 879 880 880 880 880 880 881 881 882 882 883 883 883 883 883
811 812 812 826 832 833 835 835 833 829 827 825 824 819 816 816 820 824 824 826 826 828 828 826 828 830 840 847 845 843 842 844 843 843 845 846 847 849 850 850 851 852 854 855 856 857 858 860 861 862 863 864 865 866 867 868 869 870 871 871 872 873 873 874 875 875 875 876 875 875 876 876 877 877 878 879 879 880 880 880 880 880 880 881 881 881 881 881 881 882 883 883 884 884 884 884 884
811 814 817 828 828 828 830 831 832 832 831 827 824 819 815 817 820 822 822 825 826 829 828 824 824 826 841 847 844 844 843 843 843 844 845 846 848 849 850 850 851 852 854 855 856 857 858 859 860 861 862 864 865 866 867 868 869 870 871 872 872 873 874 875 875 876 876 876 876 876 876 877 877 878 878 879 880 880 880 881 881 881 881 881 881 881 882 882 882 882 883 884 885 885 885 885 885
808 810 817 827 825 824 825 827 831 832 833 826 821 817 816 819 819 819 820 826 828 827 824 821 821 828 841 847 846 845 842 843 843 844 845 846 848 849 850 851 852 853 854 855 856 857 858 859 860 861 862 863 864 865 867 868 869 870 871 872 873 874 874 875 876 876 877 877 877 877 877 878 878 878 879 879 880 880 881 881 881 881 882 882 882 882 882 882 883 883 884 885 885 886 886 886 886
805 808 814 824 825 825 822 824 827 829 831 825 820 818 818 819 817 819 820 826 828 822 821 821 821 828 838 841 842 840 839 841 842 844 845 846 848 849 850 850 852 853 854 855 855 857 857 859 859 860 861 862 864 865 866 867 868 870 871 872 873 873 874 875 876 877 877 877 878 878 878 878 879 879 880 880 880 881 881 881 882 882 882 882 882 883 883 883 883 884 885 886 886 887 887 887 886
803 806 816 825 828 829 823 822 826 829 829 823 819 817 820 820 816 820 819 820 825 821 821 824 822 826 832 832 832 833 836 840 842 844 845 846 847 849 850 850 851 852 853 854 855 856 857 858 859 860 861 862 863 864 865 867 868 869 870 871 872 873 874 874 875 876 877 877 878 878 878 879 879 880 880 881 881 882 882 882 882 883 883 883 883 883 884 884 884 885 886 887 887 887 887 887 887
802 808 821 828 829 829 823 821 824 825 825 822 820 818 822 823 818 818 817 817 822 823 824 826 824 825 828 828 828 831 836 839 842 844 844 846 846 848 849 849 850 851 852 853 854 855 856 857 858 859 860 861 863 864 865 866 867 868 869 870 871 872 873 874 875 876 876 877 878 878 878 879 879 880 881 881 882 882 883 883 883 884 884 884 884 885 885 885 885 886 887 888 888 888 888 888 888
806 816 825 829 829 827 821 819 817 818 822 821 819 818 820 824 821 818 819 821 823 825 826 827 827 828 829 829 829 832 835 838 841 842 843 844 845 846 847 847 848 850 851 851 853 854 855 856 857 858 859 861 862 863 864 865 866 867 868 869 870 871 872 873 874 875 875 876 877 877 878 878 879 880 880 881 881 882 883 883 884 884 885 885 885 886 886 886 887 887 888 889 889 889 889 889 889
810 819 825 828 827 823 818 816 814 814 818 819 818 818 819 820 820 819 822 825 825 827 829 829 831 833 832 831 832 833 835 838 839 840 841 841 842 843 844 845 847 848 849 850 851 852 853 854 856 857 858 860 861 862 863 864 865 866 867 868 869 870 871 872 873 874 874 875 876 876 877 878 878 879 880 880 881 881 882 883 883 884 885 885 886 886 886 887 888 888 889 889 890 890 890 890 889
811 817 825 825 822 820 818 816 814 812 813 817 818 818 818 819 818 819 823 826 826 827 828 830 832 834 834 833 833 834 835 837 838 839 840 840 840 841 842 843 844 845 847 848 849 851 852 853 854 856 857 858 859 861 862 863 864 865 866 867 868 869 870 871 872 873 873 874 875 875 876 877 877 878 879 879 880 880 881 882 882 883 884 885 885 885 886 887 888 889 889 890 890 890 890 890 890
811 816 823 821 818 819 818 816 815 813 813 815 817 818 820 819 818 819 822 827 829 825 822 823 824 828 832 833 832 833 834 835 837 838 838 839 839 840 840 841 842 843 845 847 848 849 850 851 852 854 855 856 858 859 860 862 863 864 865 866 867 868 869 870 871 872 872 873 873 874 875 875 876 877 878 878 879 879 880 881 881 882 882 883 884 884 885 886 887 888 889 889 890 890 891 891 891
812 817 819 817 816 819 818 815 815 814 813 815 817 819 819 818 818 819 821 826 826 820 817 816 816 820 825 828 830 832 833 834 835 836 836 837 837 838 839 840 842 843 844 845 846 847 849 850 851 852 854 854 856 857 858 860 862 863 864 865 866 867 868 869 870 871 871 872 872 872 873 874 875 876 877 878 878 879 879 880 880 881 882 882 882 882 883 884 885 886 887 888 889 890 891 891 891
814 819 817 816 815 817 819 816 816 815 814 817 818 818 818 819 821 819 819 821 818 814 813 812 812 816 819 823 828 830 832 832 832 832 833 834 834 835 837 838 839 841 842 842 844 846 847 848 850 851 852 853 854 855 857 858 860 861 862 863 865 866 867 868 869 870 871 871 871 871 872 873 874 875 876 877 878 878 879 879 880 881 881 882 882 882 883 883 884 885 886 886 887 888 889 890 891
814 819 817 817 815 816 818 816 817 815 816 818 817 818 818 820 821 819 818 816 814 813 811 810 811 814 819 823 826 826 827 828 829 829 830 830 831 832 834 835 837 838 840 841 842 844 845 846 848 850 850 851 853 854 855 856 858 859 860 862 863 864 865 866 868 869 870 871 871 871 872 873 874 875 876 877 877 878 879 879 880 881 881 882 883 883 884 884 885 885 885 886 886 887 888 889 890
814 817 817 817 817 817 817 817 817 817 817 818 817 818 819 819 820 820 818 814 813 813 812 811 812 816 819 822 823 825 826 826 827 828 829 829 830 832 833 834 836 837 837 838 840 841 843 844 846 848 849 850 851 852 853 854 856 857 858 859 861 862 863 864 866 867 869 870 871 871 872 872 873 874 875 876 877 878 879 879 880 880 881 882 883 884 885 885 886 886 887 887 887 888 888 889 890
814 815 816 817 818 818 818 818 818 818 818 818 819 820 820 818 819 819 814 811 812 812 812 812 814 817 819 820 821 822 823 824 825 826 827 828 830 831 832 833 834 834 835 836 837 838 840 842 844 845 847 848 849 850 851 853 854 855 856 857 858 860 861 862 864 865 867 868 869 869 870 871 872 873 874 875 876 877 878 879 880 880 881 882 883 884 885 886 886 887 888 888 888 888 889 890 890
812 814 816 816 818 817 817 818 818 818 818 818 820 823 820 818 821 820 811 808 810 812 813 814 814 816 817 818 819 819 820 820 821 822 824 827 828 828 829 830 831 831 832 833 834 835 837 840 841 843 845 846 847 848 849 850 852 853 854 855 856 857 859 860 861 863 864 865 867 868 868 870 871 872 873 874 875 876 877 878 879 880 881 882 883 884 885 886 887 888 888 889 889 889 889 890 890
812 814 818 819 818 818 817 818 818 818 819 819 819 822 822 821 821 816 808 807 809 811 813 814 814 815 816 816 817 817 817 817 818 820 822 823 823 824 825 825 826 828 829 829 830 833 835 836 838 840 842 844 845 846 846 848 849 850 852 853 854 855 857 858 859 860 861 862 864 865 866 867 869 870 871 872 873 874 875 876 877 878 880 881 882 883 884 885 887 888 888 889 889 889 889 890 890
812 814 819 823 821 821 819 818 818 818 820 818 819 825 824 824 818 808 807 808 807 810 812 813 814 814 815 815 815 816 815 815 817 817 817 816 817 819 820 821 823 824 825 826 828 830 831 833 835 837 840 841 842 843 844 845 847 848 849 850 852 853 854 855 856 857 859 860 861 862 864 865 866 867 869 870 871 872 873 875 876 877 878 880 881 882 883 884 886 887 888 889 889 889 889 889 890
815 816 820 826 828 825 819 818 819 819 820 816 821 830 825 820 814 806 807 808 807 811 811 812 813 812 813 813 814 814 813 814 814 813 812 813 814 815 816 817 819 821 822 825 826 827 828 830 833 835 837 838 839 841 842 843 844 846 847 849 850 851 852 853 854 855 856 858 859 860 861 862 863 865 866 868 869 870 871 873 874 876 877 878 880 881 882 883 884 885 886 887 888 888 888 888 888
818 820 822 828 834 829 820 819 820 820 821 816 822 834 825 815 812 808 808 807 807 811 811 812 812 812 812 812 812 812 811 810 809 809 810 810 811 812 813 815 817 818 820 821 822 824 826 827 829 831 833 835 837 838 839 840 842 844 845 847 848 849 850 851 852 853 854 856 857 858 859 860 861 862 864 865 867 868 869 871 872 874 875 877 878 879 881 881 882 883 884 885 887 887 888 888 888
820 826 831 832 833 831 823 819 820 820 821 818 823 833 826 816 812 808 808 808 807 810 811 811 811 811 810 810 810 809 808 807 807 807 807 808 809 810 811 812 814 815 817 818 819 821 823 824 826 828 830 832 834 835 837 838 840 841 843 845 846 847 848 849 850 851 853 854 855 856 857 858 860 861 862 863 865 866 867 868 870 872 873 875 876 878 879 880 881 881 882 884 885 886 887 888 888
824 828 835 833 831 834 829 822 820 820 821 821 824 830 825 816 812 810 809 809 809 810 810 810 809 808 808 808 808 807 806 805 805 805 804 805 806 806 807 809 810 812 813 815 816 818 820 821 823 825 826 828 831 833 835 836 838 839 841 842 844 845 846 847 848 850 851 852 853 854 856 857 858 859 860 861 862 864 865 867 868 869 870 872 874 876 877 878 879 880 881 882 883 884 885 887 888
831 830 833 832 830 834 832 824 821 820 822 824 825 829 825 816 812 811 810 809 810 810 809 807 807 806 804 805 805 804 804 803 801 800 800 801 801 803 804 805 807 809 811 812 813 814 816 818 820 822 824 826 828 830 832 834 836 838 839 840 842 843 844 845 846 848 848 849 851 852 854 855 856 858 858 859 860 862 863 864 866 867 868 869 871 873 875 876 878 878 879 881 882 883 883 885 887
831 832 832 831 830 830 828 825 824 822 824 827 827 829 825 817 813 812 811 809 810 808 806 805 804 803 802 802 802 801 801 799 795 794 795 796 797 799 800 802 804 806 808 809 810 812 814 816 817 819 821 823 825 828 830 833 835 836 837 838 839 840 841 842 844 845 845 846 848 849 850 852 854 855 857 858 859 860 861 862 864 865 866 867 869 870 872 874 876 877 878 879 881 883 883 884 885
825 827 829 830 829 831 829 827 827 825 826 827 826 826 823 819 815 811 810 809 809 807 805 804 803 802 801 800 798 797 798 794 790 790 792 792 794 795 797 799 801 802 804 806 808 810 811 813 815 817 818 820 823 826 828 830 832 833 835 836 836 836 837 839 840 842 843 844 845 846 847 849 851 853 854 855 857 858 859 860 861 862 863 864 865 867 869 871 873 875 876 877 879 882 883 884 884
820 824 828 830 830 832 832 829 827 824 826 826 824 825 822 820 816 810 808 807 807 807 805 803 802 801 799 798 796 794 793 789 787 789 789 790 791 792 795 796 798 801 802 804 805 806 808 809 811 813 815 818 820 821 823 825 827 828 830 831 831 832 834 835 837 838 840 841 842 844 845 846 848 850 851 852 854 855 856 857 858 859 860 861 862 864 866 868 870 872 874 875 876 878 881 882 882
819 823 827 829 830 832 832 830 826 824 827 826 824 825 820 817 815 809 807 806 804 802 801 799 797 798 797 795 793 791 789 787 786 787 787 788 790 790 793 794 796 797 798 800 801 802 804 806 808 809 812 814 815 816 819 820 821 822 824 825 826 829 831 832 833 834 836 838 840 841 842 844 845 847 849 850 851 852 852 854 855 856 857 858 860 862 863 865 867 869 870 873 875 876 878 879 880
820 824 828 830 831 833 833 830 827 825 827 826 826 827 819 813 812 807 803 801 797 795 794 793 792 794 795 792 790 789 788 787 786 785 784 785 787 788 791 792 793 794 795 797 798 800 802 804 805 807 809 810 811 813 815 816 818 820 821 823 825 827 829 830 831 832 834 835 837 838 839 841 842 844 845 847 848 849 849 851 852 853 854 856 857 859 861 862 864 865 865 867 871 874 876 877 878
822 825 830 832 831 833 834 830 827 826 828 828 829 829 818 809 808 803 798 796 794 792 790 789 789 790 788 786 785 786 786 786 784 783 783 784 785 787 788 789 790 792 794 796 798 799 800 802 803 804 806 807 810 811 813 815 817 820 821 823 824 826 827 829 830 831 832 832 833 835 836 837 839 840 842 844 845 846 846 848 849 850 851 853 854 855 857 859 861 862 863 863 866 869 872 874 875
825 824 828 830 828 831 833 830 827 826 828 830 830 828 815 805 805 799 792 794 792 789 788 787 787 785 783 782 781 782 782 782 782 781 782 783 783 784 785 786 788 790 792 793 795 797 798 800 801 803 805 807 809 810 812 815 817 819 821 822 824 825 825 826 827 827 827 828 829 830 831 833 835 836 839 840 842 843 843 844 845 846 848 849 851 851 853 855 857 858 859 860 861 863 866 869 872
828 825 826 825 825 829 831 830 829 831 835 832 832 835 820 804 805 801 792 791 789 786 786 785 784 783 782 781 778 779 780 780 780 779 780 781 781 783 784 785 787 788 790 791 793 795 796 798 800 802 803 805 807 809 811 813 815 816 818 819 819 820 821 821 820 820 822 823 824 826 828 830 832 833 834 836 837 839 840 841 842 843 844 845 846 848 849 851 852 854 855 856 857 858 861 864 866
831 829 828 824 824 828 830 830 833 838 841 834 833 842 835 814 803 800 794 792 789 785 783 782 782 781 777 776 775 776 778 778 779 779 779 780 781 783 784 784 786 787 788 790 792 794 795 797 798 800 801 802 804 806 808 810 811 813 813 814 815 815 816 815 816 818 819 821 822 824 825 826 828 829 831 832 833 834 835 837 838 839 840 841 842 844 845 846 848 850 851 852 853 855 857 858 860
832 829 828 823 823 828 830 831 835 839 840 838 836 839 844 829 805 796 795 794 791 785 782 780 778 776 773 772 775 775 775 776 777 778 778 780 780 781 782 783 784 786 787 790 791 792 794 795 796 797 798 800 801 803 805 806 807 808 810 811 812 812 812 813 815 817 818 820 821 822 822 823 824 825 827 829 830 830 831 832 834 835 836 837 839 840 841 843 845 847 848 849 850 852 852 853 855
829 828 826 823 824 828 830 833 838 842 843 844 841 839 847 837 808 798 799 797 794 787 782 778 773 773 773 772 774 774 774 775 776 776 777 778 778 779 780 782 784 785 787 788 789 791 792 793 794 795 796 797 799 800 801 803 804 805 807 808 809 809 810 812 814 815 816 817 818 819 820 820 821 822 823 825 826 826 827 828 830 832 833 833 834 836 838 840 842 843 844 845 847 848 848 850 851
826 827 826 825 828 831 833 837 839 845 848 845 840 837 843 833 807 801 804 798 793 785 778 778 776 774 773 772 773 773 774 775 775 776 777 777 777 778 779 781 783 784 786 787 788 790 791 792 793 793 794 794 796 797 798 800 801 803 804 805 805 807 808 810 812 813 813 814 815 815 816 817 818 819 819 821 822 823 823 824 825 827 829 830 830 832 835 836 837 838 839 841 843 844 845 846 847
825 826 828 831 835 835 838 842 842 847 849 842 838 835 839 836 811 800 800 792 786 782 778 779 777 775 773 772 773 774 775 776 776 776 777 777 777 778 779 780 782 783 785 786 787 788 789 790 790 791 792 793 793 795 796 797 799 800 801 802 803 804 806 808 808 809 809 810 811 811 812 813 813 815 816 817 818 820 821 821 821 823 825 826 827 828 830 831 833 834 836 838 839 840 841 843 844
825 826 831 836 841 842 844 848 850 852 847 840 842 841 842 841 815 794 794 789 783 782 780 778 777 775 774 773 775 776 777 777 777 776 777 778 778 778 779 779 781 782 783 784 784 785 786 787 788 789 790 791 791 793 794 795 796 797 798 799 800 801 802 804 804 804 805 806 807 808 809 810 810 811 812 813 814 816 817 818 818 819 821 822 823 824 826 827 829 830 830 831 833 835 837 839 841
828 829 834 841 850 853 853 856 857 855 848 842 844 843 838 831 809 792 789 784 781 782 781 778 777 776 775 776 777 778 778 778 778 778 778 779 780 779 779 778 779 780 781 782 782 783 784 785 787 787 787 788 789 790 792 793 794 794 795 796 797 798 799 800 800 801 802 803 804 805 806 806 806 807 807 808 809 811 813 813 814 815 816 817 819 821 822 823 825 826 826 827 829 831 833 835 836
830 828 831 840 852 860 858 860 861 853 846 845 846 842 832 817 800 790 784 777 777 780 780 779 777 777 776 777 778 778 778 780 780 780 779 780 781 780 779 778 778 778 778 780 781 782 783 784 784 785 785 787 787 788 789 790 790 791 792 793 794 795 796 796 796 797 798 799 800 801 801 801 802 802 803 803 805 808 809 810 811 812 812 814 816 817 819 820 821 821 822 823 825 827 828 830 832
829 826 828 832 839 846 849 851 851 845 843 847 848 839 823 807 793 787 784 780 779 779 780 782 780 779 779 777 778 778 779 780 780 780 779 779 780 780 779 779 778 777 777 778 780 781 781 782 782 782 783 784 785 786 786 787 787 789 790 790 791 791 792 792 793 793 794 795 796 797 797 797 798 798 799 801 803 805 806 807 808 809 810 811 812 814 815 816 817 818 819 820 821 823 825 827 829
830 827 830 831 828 829 838 845 844 843 846 847 843 831 815 802 789 783 783 780 778 778 778 780 779 780 780 778 778 779 779 779 779 779 779 778 778 778 779 778 778 778 778 778 779 779 779 779 780 780 780 782 783 783 783 784 785 786 786 787 788 788 789 790 790 790 791 792 793 793 794 795 795 796 797 798 800 802 804 805 806 806 807 808 809 811 812 812 814 815 816 817 818 819 822 823 825
828 830 829 827 824 822 832 846 848 848 847 841 835 823 810 804 792 780 780 779 776 777 775 774 776 779 781 778 778 779 777 776 776 777 777 777 777 778 778 778 778 778 778 777 777 776 777 777 777 778 778 779 780 780 781 781 782 782 783 784 785 786 786 786 786 787 788 790 791 791 792 792 793 794 794 795 797 799 801 803 803 804 805 806 807 807 808 809 810 811 813 813 814 816 818 819 821
824 829 824 821 826 825 828 841 849 852 850 840 830 820 812 812 801 782 780 782 779 776 774 772 774 778 779 777 777 777 775 775 776 776 776 776 776 776 775 775 775 775 775 774 775 775 776 776 776 776 776 776 776 777 778 779 779 779 780 780 781 782 782 783 784 785 786 787 788 788 789 789 790 791 792 793 794 795 797 799 800 801 802 803 804 804 805 806 807 808 809 809 811 813 815 816 818
819 821 819 821 830 833 833 839 844 850 852 839 825 820 814 809 800 786 781 782 778 774 773 773 775 777 779 778 777 776 775 775 775 775 776 775 774 773 773 773 772 773 773 773 773 774 774 775 775 775 774 774 774 775 776 776 776 776 776 777 778 779 779 780 781 783 784 784 784 785 785 786 787 789 790 791 792 792 794 796 797 798 799 800 801 802 803 804 804 805 806 806 808 811 812 813 815
819 819 821 822 826 829 830 834 836 840 847 840 826 821 809 794 790 787 781 778 775 775 775 776 779 780 779 777 774 773 774 775 775 775 775 774 773 771 771 771 771 771 771 771 772 773 772 773 773 773 773 773 773 773 773 773 773 773 773 774 774 775 776 778 779 780 781 780 781 783 783 784 785 786 787 788 789 790 791 792 794 795 796 797 799 800 801 802 803 803 803 804 806 808 809 811 812
819 821 824 824 826 829 829 830 831 830 836 839 834 825 805 785 780 777 776 777 776 778 779 779 780 780 778 775 773 772 772 773 774 774 774 774 772 770 770 770 770 770 770 770 771 771 772 772 772 772 772 772 770 770 770 770 770 770 770 770 770 772 773 775 776 777 777 777 778 780 781 783 783 783 784 785 786 787 788 790 791 792 793 794 795 797 798 800 800 800 801 802 804 805 806 808 810
812 815 817 818 821 827 832 835 832 826 826 830 834 827 799 777 773 771 774 778 776 776 777 776 778 776 774 772 771 771 770 770 772 772 772 772 770 770 770 769 769 769 769 769 769 770 770 771 771 771 771 769 768 768 769 769 769 768 767 766 767 769 770 771 772 773 773 774 775 777 779 781 782 781 782 782 783 785 786 787 788 789 790 791 792 793 795 796 797 797 799 800 801 802 804 805 807